CST,Max TemperatureF,Mean TemperatureF,Min TemperatureF,Max Dew PointF,MeanDew PointF,Min DewpointF,Max Humidity, Mean Humidity, Min Humidity, Max Sea Level PressureIn, Mean Sea Level PressureIn, Min Sea Level PressureIn, Max VisibilityMiles, Mean VisibilityMiles, Min VisibilityMiles, Max Wind SpeedMPH, Mean Wind SpeedMPH, Max Gust SpeedMPH,PrecipitationIn, CloudCover, Events, WindDirDegrees
2013-11-1,61,50,39,42,38,35,83,63,42,29.99,29.81,29.65,10,10,9,28,10,40,0.06,2,Rain,294
2013-11-2,58,45,32,40,35,31,92,64,36,30.21,30.14,30.00,10,10,10,20,8,25,0.00,2,,309
2013-11-3,60,45,29,38,33,28,100,69,37,30.17,30.04,29.87,10,9,1,26,14,35,0.00,0,,161
2013-11-4,60,55,49,48,45,38,83,67,51,30.10,29.98,29.88,10,10,7,23,9,31,0.01,6,Rain,176
2013-11-5,60,51,41,58,53,39,93,85,77,30.10,29.96,29.83,10,7,2,24,10,30,0.61,8,Rain,158
2013-11-6,48,40,32,37,33,30,89,72,54,30.35,30.20,29.99,10,10,7,24,11,32,T,6,,306
2013-11-7,55,41,27,34,28,21,96,62,28,30.41,30.37,30.32,10,10,10,20,5,24,0.00,0,,294
2013-11-8,65,46,26,34,30,24,100,65,30,30.35,30.05,29.83,10,10,10,36,13,48,0.00,0,,189
2013-11-9,68,50,32,38,32,29,89,56,22,30.35,30.15,29.97,10,10,8,20,5,23,0.00,0,,331
2013-11-10,57,43,28,38,30,26,89,62,35,30.46,30.35,30.22,10,10,10,10,4,12,0.00,2,,128
2013-11-11,57,41,24,48,32,13,86,72,57,30.74,30.35,30.15,10,10,6,26,13,33,0.00,5,,354
2013-11-12,35,25,14,15,11,6,84,58,32,30.94,30.82,30.72,10,10,4,22,6,28,0.00,0,,341
2013-11-13,50,32,14,21,16,11,80,52,24,30.69,30.42,30.16,10,10,10,22,12,26,0.00,0,Snow,191
2013-11-14,58,48,37,29,25,21,57,44,30,30.13,30.01,29.94,10,10,10,21,13,26,0.00,0,,199
2013-11-15,59,43,27,43,34,24,92,68,43,29.96,29.86,29.71,10,10,10,18,7,23,0.00,0,,171
2013-11-16,72,61,50,58,53,44,93,73,53,29.71,29.49,29.37,10,8,2,36,17,46,0.83,7,Rain-Thunderstorm,183
2013-11-17,65,53,41,58,39,28,78,52,26,30.08,29.60,29.28,10,10,10,36,16,44,0.00,1,,273
2013-11-18,57,43,29,34,30,24,92,60,28,30.31,30.23,30.10,10,10,10,14,4,17,0.00,0,,256
2013-11-19,62,44,26,31,25,21,85,54,22,30.27,30.12,29.97,10,10,10,26,11,32,0.00,2,,157
2013-11-20,53,47,40,38,33,23,79,56,32,29.97,29.93,29.86,10,10,6,25,12,30,0.23,4,Rain-Thunderstorm,151
2013-11-21,44,36,27,40,32,22,92,87,82,30.50,30.23,29.99,10,7,2,24,14,30,0.19,7,Rain-Snow,354
2013-11-22,27,25,22,23,19,16,84,80,75,30.69,30.63,30.49,10,10,5,24,11,30,T,4,Snow,343
2013-11-23,25,18,11,18,11,5,84,67,50,30.87,30.81,30.67,10,10,10,22,11,25,0.00,0,,12
2013-11-24,29,20,11,12,8,5,76,59,42,30.82,30.62,30.35,10,10,10,14,7,16,0.00,2,,181
2013-11-25,42,34,25,25,20,13,85,66,46,30.32,30.24,30.18,10,10,9,16,7,28,0.00,5,,222
2013-11-26,38,28,18,25,18,8,92,66,40,30.45,30.32,30.20,10,10,8,28,12,33,0.00,2,,342
2013-11-27,32,22,12,14,10,6,76,58,39,30.48,30.35,30.16,10,10,10,16,6,20,0.00,0,,207
2013-11-28,38,28,17,20,17,12,77,61,44,30.54,30.37,30.17,10,10,10,20,8,23,0.00,0,,333
2013-11-29,50,34,17,26,21,12,84,63,42,30.55,30.41,30.25,10,10,10,14,6,17,0.00,0,,147
2013-11-30,53,38,22,33,27,19,85,68,50,30.23,30.16,30.09,10,10,7,14,3,16,0.00,0,,184